Sandra Hugh — WDD9019 — position and weather

sailwx.info

Track history (hours):
 
Tides and Currents Weather Stations Pressure Air Temp Water Temp Dewpoint Dewpoint Depression Visibility Wind Speed Wind Dir Waves Ship Positions

Sandra Hugh

Owner: Sortwell Inc., DBA AmNav Maritime Services, Oakland, CA. More information available from US FCC via Universal Licensing System and Coast Guard Vessel Documentation Center.

Last reported at 2014-Oct-21 09:32 UTC. Time now 2014-Oct-21 10:26 UTC.
Position N 37°49' W 122°19'.

Length 24 m; draft 4.9 m.

Type: Tug. MMSI: 367305920.

Date/timePositionNaut miles runAvg speedWind from/ knotsBaromVisibWave heightAir tempDewpointWater temp
2014-Oct-21 09:32N 37°49' W 122°19'0 0.0
2014-Oct-21 08:32N 37°49' W 122°19'0 0.0
2014-Oct-21 07:32N 37°49' W 122°19'0 0.0
2014-Oct-21 06:32N 37°49' W 122°19'0 0.0
2014-Oct-21 05:32N 37°49' W 122°19'0 0.0
2014-Oct-21 04:32N 37°49' W 122°19'0 0.0
2014-Oct-21 03:32N 37°49' W 122°19'0 0.0
2014-Oct-21 02:32N 37°49' W 122°19'0 0.0
2014-Oct-21 01:32N 37°49' W 122°19'0 0.0
2014-Oct-21 00:32N 37°49' W 122°19'0 0.0
2014-Oct-20 23:32N 37°49' W 122°19'0 0.0
2014-Oct-20 22:32N 37°49' W 122°19'0 0.0
2014-Oct-20 21:32N 37°49' W 122°19'0 0.0
2014-Oct-20 20:32N 37°49' W 122°19'0 0.0
2014-Oct-20 19:32N 37°49' W 122°19'0 0.0
2014-Oct-20 18:32N 37°49' W 122°19'0 0.0
2014-Oct-20 17:32N 37°49' W 122°19'0 0.0
2014-Oct-20 16:32N 37°49' W 122°19'0 0.0
2014-Oct-20 15:32N 37°49' W 122°19'0 0.0
2014-Oct-20 14:32N 37°49' W 122°19'0 0.0
2014-Oct-20 13:32N 37°49' W 122°19'0 0.0
2014-Oct-20 12:32N 37°49' W 122°19'0 0.0
2014-Oct-20 11:32N 37°49' W 122°19'0 0.0
2014-Oct-20 10:32N 37°49' W 122°19'0 0.0
2014-Oct-20 09:32N 37°49' W 122°19'0 0.0
2014-Oct-20 08:32N 37°49' W 122°19'0 0.0
2014-Oct-20 07:32N 37°49' W 122°19'0 0.0
2014-Oct-20 06:32N 37°49' W 122°19'0 0.0
2014-Oct-20 05:32N 37°49' W 122°19'0 0.0
2014-Oct-20 04:32N 37°49' W 122°19'0 0.0
2014-Oct-20 03:32N 37°49' W 122°19'0 0.0
2014-Oct-20 02:32N 37°49' W 122°19'0 0.0
2014-Oct-20 01:32N 37°49' W 122°19'2 1.4
2014-Oct-20 00:25N 37°48' W 122°19'1 1.4
2014-Oct-19 23:34N 37°47' W 122°17'3 3.2
2014-Oct-19 22:33N 37°48' W 122°21'3 2.4
2014-Oct-19 21:31N 37°49' W 122°19'0 0.0
2014-Oct-19 20:31N 37°49' W 122°19'0 0.0
2014-Oct-19 19:31N 37°49' W 122°19'0 0.0
2014-Oct-19 18:31N 37°49' W 122°19'0 0.0
2014-Oct-19 17:31N 37°49' W 122°19'0 0.0
2014-Oct-19 16:31N 37°49' W 122°19'0 0.0
2014-Oct-19 15:31N 37°49' W 122°19'0 0.0
2014-Oct-19 14:31N 37°49' W 122°19'0 0.0
2014-Oct-19 13:31N 37°49' W 122°19'2 1.6
2014-Oct-19 12:33N 37°48' W 122°20'1 1.0
2014-Oct-19 11:33N 37°49' W 122°20'1 0.9
2014-Oct-19 10:31N 37°49' W 122°19'0 0.0
2014-Oct-19 09:31N 37°49' W 122°19'0 0.0
2014-Oct-19 08:31N 37°49' W 122°19'0 0.0
2014-Oct-19 07:31N 37°49' W 122°19'0 0.0
2014-Oct-19 06:31N 37°49' W 122°19'0 0.0
2014-Oct-19 05:31N 37°49' W 122°19'0 0.0
2014-Oct-19 04:31N 37°49' W 122°19'0 0.0
2014-Oct-19 03:31N 37°49' W 122°19'0 0.0
2014-Oct-19 02:31N 37°49' W 122°19'0 0.0
2014-Oct-19 01:31N 37°49' W 122°19'0 0.0
2014-Oct-19 00:31N 37°49' W 122°19'0 0.0
2014-Oct-18 23:31N 37°49' W 122°19'0 0.0
2014-Oct-18 22:31N 37°49' W 122°19'0 0.0
2014-Oct-18 21:31N 37°49' W 122°19'0 0.0
2014-Oct-18 20:31N 37°49' W 122°19'0 0.0
2014-Oct-18 19:31N 37°49' W 122°19'0 0.0
2014-Oct-18 18:31N 37°49' W 122°19'0 0.0
2014-Oct-18 17:31N 37°49' W 122°19'0 0.0
2014-Oct-18 16:31N 37°49' W 122°19'0 0.0
2014-Oct-18 15:31N 37°49' W 122°19'0 0.0
2014-Oct-18 14:31N 37°49' W 122°19'2 1.7
2014-Oct-18 13:33N 37°48' W 122°19'0 0.1
2014-Oct-18 12:33N 37°48' W 122°19'2 1.6
2014-Oct-18 11:34N 37°49' W 122°19'0 0.0
2014-Oct-18 10:31N 37°49' W 122°19'0 0.0
2014-Oct-18 09:31N 37°49' W 122°19'0 0.0
2014-Oct-18 08:31N 37°49' W 122°19'0 0.0
2014-Oct-18 07:34N 37°49' W 122°19'1 1.4
2014-Oct-18 06:33N 37°49' W 122°20'7 7.0
2014-Oct-18 05:32N 37°49' W 122°29'5 5.1
2014-Oct-18 04:33N 37°53' W 122°26'10 9.5
2014-Oct-18 03:33N 38°02' W 122°22'7 0.4
2014-Oct-17 11:08N 38°04' W 122°13'5 8.5
2014-Oct-17 10:32N 38°03' W 122°19'8 8.4
2014-Oct-17 09:34N 37°56' W 122°25'1 0.5
2014-Oct-17 08:27N 37°56' W 122°25'0 0.3
2014-Oct-17 07:33N 37°55' W 122°25'3 2.6
2014-Oct-17 06:33N 37°53' W 122°25'2 2.1
2014-Oct-17 05:32N 37°54' W 122°23'0 0.0
2014-Oct-17 04:32N 37°54' W 122°23'0 0.0
2014-Oct-17 03:32N 37°54' W 122°23'1 1.2
2014-Oct-17 02:34N 37°55' W 122°22'0 0.3
2014-Oct-17 01:33N 37°55' W 122°22'3 2.7
2014-Oct-17 00:30N 37°53' W 122°25'1 0.7
2014-Oct-16 23:29N 37°53' W 122°24'5 5.0
2014-Oct-16 22:33N 37°49' W 122°21'1 0.5
2014-Oct-16 21:32N 37°48' W 122°20'2 1.5
2014-Oct-16 20:31N 37°49' W 122°19'0 0.0
2014-Oct-16 19:31N 37°49' W 122°19'0 0.0
2014-Oct-16 18:31N 37°49' W 122°19'0 0.0
2014-Oct-16 17:31N 37°49' W 122°19'0 0.0
2014-Oct-16 16:31N 37°49' W 122°19'0 0.0
2014-Oct-16 15:31N 37°49' W 122°19'0 0.0
2014-Oct-16 14:28N 37°49' W 122°19'2 1.7
2014-Oct-16 13:31N 37°48' W 122°20'2 2.2
2014-Oct-16 12:33N 37°47' W 122°23'2 2.0
2014-Oct-16 11:33N 37°48' W 122°20'0 0.0
2014-Oct-16 03:12N 37°49' W 122°20'3 5.4
2014-Oct-16 02:33N 37°51' W 122°23'15 0.6
2014-Oct-15 00:17N 38°04' W 122°13'4 0.2
2014-Oct-14 01:10N 38°02' W 122°08'0 0.1
2014-Oct-14 00:24N 38°02' W 122°08'0 0.0
2014-Oct-13 23:12N 38°02' W 122°08'0 0.0
2014-Oct-13 17:16N 38°02' W 122°08'2 1.9
2014-Oct-13 16:21N 38°03' W 122°06'5 6.3
2014-Oct-13 15:33N 38°04' W 122°12'1110.6
2014-Oct-13 14:33N 37°60' W 122°25'9 9.3
2014-Oct-13 13:33N 37°51' W 122°26'4 3.5
2014-Oct-13 12:30N 37°49' W 122°30'9 9.0
2014-Oct-13 11:32N 37°49' W 122°19'0 0.0
2014-Oct-13 10:29N 37°49' W 122°19'0 0.0
2014-Oct-13 09:32N 37°49' W 122°19'0 0.0
2014-Oct-13 08:32N 37°49' W 122°19'0 0.0
2014-Oct-13 07:32N 37°49' W 122°19'0 0.0
2014-Oct-13 06:32N 37°49' W 122°19'0 0.0
2014-Oct-13 05:32N 37°49' W 122°19'0 0.0
2014-Oct-13 04:32N 37°49' W 122°19'0 0.0
2014-Oct-13 03:32N 37°49' W 122°19'1 1.0
2014-Oct-13 02:34N 37°49' W 122°20'10 9.9
2014-Oct-13 01:33N 37°57' W 122°26'15 4.5
2014-Oct-12 22:19N 38°02' W 122°08'6 8.0
2014-Oct-12 21:33N 38°04' W 122°16'8 7.5
2014-Oct-12 20:33N 38°01' W 122°24'10 6.9
2014-Oct-12 19:04N 37°50' W 122°26'2 1.5
2014-Oct-12 17:33N 37°49' W 122°24'4 4.3
2014-Oct-12 16:30N 37°49' W 122°19'0 0.0
2014-Oct-12 15:33N 37°49' W 122°19'1 0.9
2014-Oct-12 14:32N 37°49' W 122°20'2 1.6
2014-Oct-12 13:33N 37°48' W 122°21'2 2.2
2014-Oct-12 12:31N 37°49' W 122°19'0 0.0
2014-Oct-12 11:31N 37°49' W 122°19'0 0.0
2014-Oct-12 10:31N 37°49' W 122°19'0 0.0
2014-Oct-12 09:31N 37°49' W 122°19'0 0.0
2014-Oct-12 08:31N 37°49' W 122°19'0 0.0
2014-Oct-12 07:28N 37°49' W 122°19'0 0.0
2014-Oct-12 06:31N 37°49' W 122°19'0 0.0
2014-Oct-12 05:31N 37°49' W 122°19'0 0.0
2014-Oct-12 04:31N 37°49' W 122°19'0 0.0
2014-Oct-12 03:31N 37°49' W 122°19'0 0.0
2014-Oct-12 02:31N 37°49' W 122°19'0 0.0
2014-Oct-12 01:32N 37°49' W 122°19'3 3.2
2014-Oct-12 00:33N 37°48' W 122°22'2 2.1
2014-Oct-11 23:33N 37°50' W 122°24'5 5.2
2014-Oct-11 22:32N 37°55' W 122°22'0 0.1
2014-Oct-11 21:29N 37°55' W 122°22'0 0.5
2014-Oct-11 20:31N 37°55' W 122°22'4 3.7
2014-Oct-11 19:33N 37°52' W 122°24'4 4.3
2014-Oct-11 18:33N 37°49' W 122°19'1 0.6
2014-Oct-11 17:33N 37°49' W 122°19'0 0.0
2014-Oct-11 16:33N 37°49' W 122°19'0 0.0
2014-Oct-11 15:33N 37°49' W 122°19'0 0.0
2014-Oct-11 14:30N 37°49' W 122°19'4 4.5
2014-Oct-11 13:33N 37°48' W 122°24'2 1.6
2014-Oct-11 12:33N 37°49' W 122°26'6 5.3
2014-Oct-11 11:31N 37°49' W 122°19'0 0.0
2014-Oct-11 10:31N 37°49' W 122°19'  
Track history (hours):
 
Tides and Currents Weather Stations Pressure Air Temp Water Temp Dewpoint Dewpoint Depression Visibility Wind Speed Wind Dir Waves Ship Positions

Sandra Hugh

Owner: Sortwell Inc., DBA AmNav Maritime Services, Oakland, CA. More information available from US FCC via Universal Licensing System and Coast Guard Vessel Documentation Center.

Last reported at 2014-Oct-21 09:32 UTC. Time now 2014-Oct-21 10:26 UTC.
Position N 37°49' W 122°19'.

Length 24 m; draft 4.9 m.

Type: Tug. MMSI: 367305920.

Date/timePositionNaut miles runAvg speedWind from/ knotsBaromVisibWave heightAir tempDewpointWater temp
2014-Oct-21 09:32N 37°49' W 122°19'0 0.0
2014-Oct-21 08:32N 37°49' W 122°19'0 0.0
2014-Oct-21 07:32N 37°49' W 122°19'0 0.0
2014-Oct-21 06:32N 37°49' W 122°19'0 0.0
2014-Oct-21 05:32N 37°49' W 122°19'0 0.0
2014-Oct-21 04:32N 37°49' W 122°19'0 0.0
2014-Oct-21 03:32N 37°49' W 122°19'0 0.0
2014-Oct-21 02:32N 37°49' W 122°19'0 0.0
2014-Oct-21 01:32N 37°49' W 122°19'0 0.0
2014-Oct-21 00:32N 37°49' W 122°19'0 0.0
2014-Oct-20 23:32N 37°49' W 122°19'0 0.0
2014-Oct-20 22:32N 37°49' W 122°19'0 0.0
2014-Oct-20 21:32N 37°49' W 122°19'0 0.0
2014-Oct-20 20:32N 37°49' W 122°19'0 0.0
2014-Oct-20 19:32N 37°49' W 122°19'0 0.0
2014-Oct-20 18:32N 37°49' W 122°19'0 0.0
2014-Oct-20 17:32N 37°49' W 122°19'0 0.0
2014-Oct-20 16:32N 37°49' W 122°19'0 0.0
2014-Oct-20 15:32N 37°49' W 122°19'0 0.0
2014-Oct-20 14:32N 37°49' W 122°19'0 0.0
2014-Oct-20 13:32N 37°49' W 122°19'0 0.0
2014-Oct-20 12:32N 37°49' W 122°19'0 0.0
2014-Oct-20 11:32N 37°49' W 122°19'0 0.0
2014-Oct-20 10:32N 37°49' W 122°19'0 0.0
2014-Oct-20 09:32N 37°49' W 122°19'0 0.0
2014-Oct-20 08:32N 37°49' W 122°19'0 0.0
2014-Oct-20 07:32N 37°49' W 122°19'0 0.0
2014-Oct-20 06:32N 37°49' W 122°19'0 0.0
2014-Oct-20 05:32N 37°49' W 122°19'0 0.0
2014-Oct-20 04:32N 37°49' W 122°19'0 0.0
2014-Oct-20 03:32N 37°49' W 122°19'0 0.0
2014-Oct-20 02:32N 37°49' W 122°19'0 0.0
2014-Oct-20 01:32N 37°49' W 122°19'2 1.4
2014-Oct-20 00:25N 37°48' W 122°19'1 1.4
2014-Oct-19 23:34N 37°47' W 122°17'3 3.2
2014-Oct-19 22:33N 37°48' W 122°21'3 2.4
2014-Oct-19 21:31N 37°49' W 122°19'0 0.0
2014-Oct-19 20:31N 37°49' W 122°19'0 0.0
2014-Oct-19 19:31N 37°49' W 122°19'0 0.0
2014-Oct-19 18:31N 37°49' W 122°19'0 0.0
2014-Oct-19 17:31N 37°49' W 122°19'0 0.0
2014-Oct-19 16:31N 37°49' W 122°19'0 0.0
2014-Oct-19 15:31N 37°49' W 122°19'0 0.0
2014-Oct-19 14:31N 37°49' W 122°19'0 0.0
2014-Oct-19 13:31N 37°49' W 122°19'2 1.6
2014-Oct-19 12:33N 37°48' W 122°20'1 1.0
2014-Oct-19 11:33N 37°49' W 122°20'1 0.9
2014-Oct-19 10:31N 37°49' W 122°19'0 0.0
2014-Oct-19 09:31N 37°49' W 122°19'0 0.0
2014-Oct-19 08:31N 37°49' W 122°19'0 0.0
2014-Oct-19 07:31N 37°49' W 122°19'0 0.0
2014-Oct-19 06:31N 37°49' W 122°19'0 0.0
2014-Oct-19 05:31N 37°49' W 122°19'0 0.0
2014-Oct-19 04:31N 37°49' W 122°19'0 0.0
2014-Oct-19 03:31N 37°49' W 122°19'0 0.0
2014-Oct-19 02:31N 37°49' W 122°19'0 0.0
2014-Oct-19 01:31N 37°49' W 122°19'0 0.0
2014-Oct-19 00:31N 37°49' W 122°19'0 0.0
2014-Oct-18 23:31N 37°49' W 122°19'0 0.0
2014-Oct-18 22:31N 37°49' W 122°19'0 0.0
2014-Oct-18 21:31N 37°49' W 122°19'0 0.0
2014-Oct-18 20:31N 37°49' W 122°19'0 0.0
2014-Oct-18 19:31N 37°49' W 122°19'0 0.0
2014-Oct-18 18:31N 37°49' W 122°19'0 0.0
2014-Oct-18 17:31N 37°49' W 122°19'0 0.0
2014-Oct-18 16:31N 37°49' W 122°19'0 0.0
2014-Oct-18 15:31N 37°49' W 122°19'0 0.0
2014-Oct-18 14:31N 37°49' W 122°19'2 1.7
2014-Oct-18 13:33N 37°48' W 122°19'0 0.1
2014-Oct-18 12:33N 37°48' W 122°19'2 1.6
2014-Oct-18 11:34N 37°49' W 122°19'0 0.0
2014-Oct-18 10:31N 37°49' W 122°19'0 0.0
2014-Oct-18 09:31N 37°49' W 122°19'0 0.0
2014-Oct-18 08:31N 37°49' W 122°19'0 0.0
2014-Oct-18 07:34N 37°49' W 122°19'1 1.4
2014-Oct-18 06:33N 37°49' W 122°20'7 7.0
2014-Oct-18 05:32N 37°49' W 122°29'5 5.1
2014-Oct-18 04:33N 37°53' W 122°26'10 9.5
2014-Oct-18 03:33N 38°02' W 122°22'7 0.4
2014-Oct-17 11:08N 38°04' W 122°13'5 8.5
2014-Oct-17 10:32N 38°03' W 122°19'8 8.4
2014-Oct-17 09:34N 37°56' W 122°25'1 0.5
2014-Oct-17 08:27N 37°56' W 122°25'0 0.3
2014-Oct-17 07:33N 37°55' W 122°25'3 2.6
2014-Oct-17 06:33N 37°53' W 122°25'2 2.1
2014-Oct-17 05:32N 37°54' W 122°23'0 0.0
2014-Oct-17 04:32N 37°54' W 122°23'0 0.0
2014-Oct-17 03:32N 37°54' W 122°23'1 1.2
2014-Oct-17 02:34N 37°55' W 122°22'0 0.3
2014-Oct-17 01:33N 37°55' W 122°22'3 2.7
2014-Oct-17 00:30N 37°53' W 122°25'1 0.7
2014-Oct-16 23:29N 37°53' W 122°24'5 5.0
2014-Oct-16 22:33N 37°49' W 122°21'1 0.5
2014-Oct-16 21:32N 37°48' W 122°20'2 1.5
2014-Oct-16 20:31N 37°49' W 122°19'0 0.0
2014-Oct-16 19:31N 37°49' W 122°19'0 0.0
2014-Oct-16 18:31N 37°49' W 122°19'0 0.0
2014-Oct-16 17:31N 37°49' W 122°19'0 0.0
2014-Oct-16 16:31N 37°49' W 122°19'0 0.0
2014-Oct-16 15:31N 37°49' W 122°19'0 0.0
2014-Oct-16 14:28N 37°49' W 122°19'2 1.7
2014-Oct-16 13:31N 37°48' W 122°20'2 2.2
2014-Oct-16 12:33N 37°47' W 122°23'2 2.0
2014-Oct-16 11:33N 37°48' W 122°20'0 0.0
2014-Oct-16 03:12N 37°49' W 122°20'3 5.4
2014-Oct-16 02:33N 37°51' W 122°23'15 0.6
2014-Oct-15 00:17N 38°04' W 122°13'4 0.2
2014-Oct-14 01:10N 38°02' W 122°08'0 0.1
2014-Oct-14 00:24N 38°02' W 122°08'0 0.0
2014-Oct-13 23:12N 38°02' W 122°08'0 0.0
2014-Oct-13 17:16N 38°02' W 122°08'2 1.9
2014-Oct-13 16:21N 38°03' W 122°06'5 6.3
2014-Oct-13 15:33N 38°04' W 122°12'1110.6
2014-Oct-13 14:33N 37°60' W 122°25'9 9.3
2014-Oct-13 13:33N 37°51' W 122°26'4 3.5
2014-Oct-13 12:30N 37°49' W 122°30'9 9.0
2014-Oct-13 11:32N 37°49' W 122°19'0 0.0
2014-Oct-13 10:29N 37°49' W 122°19'0 0.0
2014-Oct-13 09:32N 37°49' W 122°19'0 0.0
2014-Oct-13 08:32N 37°49' W 122°19'0 0.0
2014-Oct-13 07:32N 37°49' W 122°19'0 0.0
2014-Oct-13 06:32N 37°49' W 122°19'0 0.0
2014-Oct-13 05:32N 37°49' W 122°19'0 0.0
2014-Oct-13 04:32N 37°49' W 122°19'0 0.0
2014-Oct-13 03:32N 37°49' W 122°19'1 1.0
2014-Oct-13 02:34N 37°49' W 122°20'10 9.9
2014-Oct-13 01:33N 37°57' W 122°26'15 4.5
2014-Oct-12 22:19N 38°02' W 122°08'6 8.0
2014-Oct-12 21:33N 38°04' W 122°16'8 7.5
2014-Oct-12 20:33N 38°01' W 122°24'10 6.9
2014-Oct-12 19:04N 37°50' W 122°26'2 1.5
2014-Oct-12 17:33N 37°49' W 122°24'4 4.3
2014-Oct-12 16:30N 37°49' W 122°19'0 0.0
2014-Oct-12 15:33N 37°49' W 122°19'1 0.9
2014-Oct-12 14:32N 37°49' W 122°20'2 1.6
2014-Oct-12 13:33N 37°48' W 122°21'2 2.2
2014-Oct-12 12:31N 37°49' W 122°19'0 0.0
2014-Oct-12 11:31N 37°49' W 122°19'0 0.0
2014-Oct-12 10:31N 37°49' W 122°19'0 0.0
2014-Oct-12 09:31N 37°49' W 122°19'0 0.0
2014-Oct-12 08:31N 37°49' W 122°19'0 0.0
2014-Oct-12 07:28N 37°49' W 122°19'0 0.0
2014-Oct-12 06:31N 37°49' W 122°19'0 0.0
2014-Oct-12 05:31N 37°49' W 122°19'0 0.0
2014-Oct-12 04:31N 37°49' W 122°19'0 0.0
2014-Oct-12 03:31N 37°49' W 122°19'0 0.0
2014-Oct-12 02:31N 37°49' W 122°19'0 0.0
2014-Oct-12 01:32N 37°49' W 122°19'3 3.2
2014-Oct-12 00:33N 37°48' W 122°22'2 2.1
2014-Oct-11 23:33N 37°50' W 122°24'5 5.2
2014-Oct-11 22:32N 37°55' W 122°22'0 0.1
2014-Oct-11 21:29N 37°55' W 122°22'0 0.5
2014-Oct-11 20:31N 37°55' W 122°22'4 3.7
2014-Oct-11 19:33N 37°52' W 122°24'4 4.3
2014-Oct-11 18:33N 37°49' W 122°19'1 0.6
2014-Oct-11 17:33N 37°49' W 122°19'0 0.0
2014-Oct-11 16:33N 37°49' W 122°19'0 0.0
2014-Oct-11 15:33N 37°49' W 122°19'0 0.0
2014-Oct-11 14:30N 37°49' W 122°19'4 4.5
2014-Oct-11 13:33N 37°48' W 122°24'2 1.6
2014-Oct-11 12:33N 37°49' W 122°26'6 5.3
2014-Oct-11 11:31N 37°49' W 122°19'0 0.0
2014-Oct-11 10:31N 37°49' W 122°19'  

Dump ship's entire track history